Corpus Christi, TX

6:45 PM CST on December 10, 2016 (GMT -0600)
Corpus Christi International

Weather History for KCRP - June, 2014

Change the Weather History Date:

Sunday, June 8, 2014

  Actual Average Record
Temperature  
Mean Temperature 87 °F 82 °F  
Max Temperature 94 °F 90 °F 97 °F (1955)
Min Temperature 79 °F 73 °F 64 °F (1983)
Degree Days  
Heating Degree Days 0 0  
Month to date heating degree days 0 0  
Since 1 June heating degree days 0 0  
Since 1 July heating degree days 1145 898  
Cooling Degree Days 22 17  
Month to date cooling degree days 146 131  
Year to date cooling degree days 952 972  
Since 1 June cooling degree days 146 131  
Growing Degree Days 36 (Base 50)    
Moisture  
Dew Point 73 °F    
Average Humidity 67    
Maximum Humidity 85    
Minimum Humidity 49    
Precipitation  
Precipitation 0.00 in 0.11 in 1.49 in (1887)
Month to date precipitation 0.02 0.84  
Year to date precipitation 7.12 11.11  
Snow  
Snow 0.00 in - - ()
Month to date snowfall 0.0  
Since 1 June snowfall 0.0  
Since 1 July snowfall T  
Snow Depth 0.00 in    
Sea Level Pressure  
Sea Level Pressure 29.86 in    
Wind  
Wind Speed 18 mph (SSE)    
Max Wind Speed 26 mph    
Max Gust Speed 33 mph    
Visibility 10 miles    
Events      
T = Trace of Precipitation, MM = Missing Value Source: NWS Daily Summary

Daily Weather History Graph

Daily Weather History Graph

Search for Another Location

Airport or City:

Trip Planner

Search our weather history database for the weather conditions in past years. The results will help you decide how hot, cold, wet, or windy it might be!

Date:

Astronomy

Jun. 08, 2014 Rise Set
Actual Time 6:33 AM CDT 8:24 PM CDT
Civil Twilight 6:07 AM CDT 8:51 PM CDT
Nautical Twilight 5:35 AM CDT 9:23 PM CDT
Astronomical Twilight 5:01 AM CDT 9:57 PM CDT
Moon 4:04 PM CDT (6/8) 3:04 AM CDT (6/8)
Length of Visible Light 14h 44m
Length of Day
13h 51m
Waxing Gibbous, 77% of the Moon is Illuminated
Jun 8
Waxing Gibbous
Jun 12
Full
Jun 19
Last Quarter
Jun 27
New
Jul 5
First Quarter

Hourly Weather History & Observations

Time (CDT) Temp. Heat Index Dew Point Humidity Pressure Visibility Wind Dir Wind Speed Gust Speed Precip Events Conditions
12:51 AM 80.1 °F 84.5 °F 73.9 °F 81% 29.90 in 10.0 mi SSE 16.1 mph - N/A   Mostly Cloudy
1:51 AM 80.1 °F 84.2 °F 73.0 °F 79% 29.89 in 10.0 mi SSE 16.1 mph - N/A   Mostly Cloudy
2:51 AM 79.0 °F - 73.0 °F 82% 29.87 in 10.0 mi SSE 16.1 mph - N/A   Scattered Clouds
3:51 AM 79.0 °F - 73.0 °F 82% 29.85 in 10.0 mi SSE 15.0 mph - N/A   Scattered Clouds
4:51 AM 79.0 °F - 73.0 °F 82% 29.86 in 10.0 mi SSE 13.8 mph - N/A   Scattered Clouds
5:51 AM 79.0 °F - 73.9 °F 84% 29.86 in 10.0 mi SSE 16.1 mph - N/A   Scattered Clouds
6:51 AM 79.0 °F - 73.9 °F 84% 29.88 in 10.0 mi SE 10.4 mph - N/A   Mostly Cloudy
7:51 AM 81.0 °F 86.2 °F 73.9 °F 79% 29.89 in 10.0 mi SE 13.8 mph - N/A   Partly Cloudy
8:16 AM 82.9 °F 89.4 °F 73.9 °F 74% 29.89 in 10.0 mi SSE 19.6 mph 25.3 mph N/A   Mostly Cloudy
8:30 AM 82.0 °F 87.4 °F 73.0 °F 74% 29.90 in 10.0 mi SSE 18.4 mph - N/A   Scattered Clouds
8:51 AM 82.0 °F 87.9 °F 73.9 °F 76% 29.91 in 10.0 mi SSE 19.6 mph - N/A   Scattered Clouds
9:51 AM 86.0 °F 92.2 °F 72.0 °F 63% 29.90 in 10.0 mi SSE 19.6 mph - N/A   Scattered Clouds
10:51 AM 89.1 °F 95.0 °F 71.1 °F 55% 29.91 in 10.0 mi SSE 21.9 mph - N/A   Scattered Clouds
11:51 AM 91.0 °F 98.2 °F 72.0 °F 53% 29.93 in 10.0 mi SE 20.7 mph 27.6 mph N/A   Scattered Clouds
12:51 PM 93.0 °F 100.1 °F 71.1 °F 49% 29.92 in 10.0 mi SSE 20.7 mph - N/A   Mostly Cloudy
1:51 PM 93.0 °F 100.7 °F 72.0 °F 50% 29.90 in 10.0 mi SE 19.6 mph 28.8 mph N/A   Mostly Cloudy
2:51 PM 93.0 °F 100.1 °F 71.1 °F 49% 29.86 in 10.0 mi SSE 21.9 mph 31.1 mph N/A   Mostly Cloudy
3:51 PM 91.0 °F 98.2 °F 72.0 °F 53% 29.85 in 10.0 mi SSE 21.9 mph 32.2 mph N/A   Mostly Cloudy
4:51 PM 91.0 °F 98.2 °F 72.0 °F 53% 29.82 in 10.0 mi SE 24.2 mph 31.1 mph N/A   Mostly Cloudy
5:51 PM 89.1 °F 96.0 °F 72.0 °F 57% 29.81 in 10.0 mi SE 25.3 mph 29.9 mph N/A   Scattered Clouds
6:51 PM 87.1 °F 94.5 °F 73.0 °F 63% 29.80 in 10.0 mi SE 24.2 mph - N/A   Scattered Clouds
7:51 PM 84.0 °F 91.2 °F 73.9 °F 72% 29.79 in 10.0 mi SE 25.3 mph - N/A   Mostly Cloudy
8:51 PM 82.0 °F 87.9 °F 73.9 °F 76% 29.79 in 10.0 mi SSE 20.7 mph - N/A   Mostly Cloudy
9:51 PM 81.0 °F 86.2 °F 73.9 °F 79% 29.82 in 10.0 mi SSE 17.3 mph - N/A   Scattered Clouds
10:03 PM 81.0 °F 86.2 °F 73.9 °F 79% 29.83 in 10.0 mi SSE 16.1 mph - N/A   Mostly Cloudy
10:37 PM 81.0 °F 86.7 °F 75.0 °F 82% 29.84 in 10.0 mi SSE 16.1 mph - N/A   Scattered Clouds
10:51 PM 81.0 °F 86.7 °F 75.0 °F 82% 29.85 in 10.0 mi SSE 13.8 mph - N/A   Scattered Clouds
11:30 PM 81.0 °F 86.7 °F 75.0 °F 82% 29.86 in 10.0 mi SSE 9.2 mph - N/A   Mostly Cloudy
11:45 PM 80.6 °F 86.2 °F 75.2 °F 84% 29.85 in 10.0 mi SSE 9.2 mph - N/A   Mostly Cloudy
11:51 PM 80.1 °F 85.1 °F 75.0 °F 85% 29.86 in 10.0 mi SSE 9.2 mph - N/A   Mostly Cloudy